Weather Roundup
Issued by NWS

Home | Current Version | Previous Version | Graphics & Text | Print | Product List | Glossary Off
Versions: 1 2 3 4 5 6 7 8 9 10 11 12 13 14 15 16 17 18 19 20 21 22 23 24 25 26 27 28 29 30 31 32 33 34 35 36 37 38 39 40 41 42 43 44 45 46 47 48 49 50

801
NZUS93 KARX 220110
HRRWXR

CURRENT HOURLY OBSERVATIONS ACROSS
MUCH OF THE UPPER MISSISSIPPI VALLEY
NATIONAL WEATHER SERVICE LA CROSSE WI
800 PM CDT THU MAY 21 2015


...SOUTHEAST MINNESOTA...


CITY           SKY/WX    TMP DP  RH WIND       PRES   REMARKS
ROCHESTER      CLEAR     65  39  38 NW13      30.03R
ROCHESTER/MAYO FAIR      68  35  28 NW15G23   30.02R
WINONA         CLEAR     70  37  30 NW10      29.99R
AUSTIN         CLEAR     64  37  36 N7        30.04R
ALBERT LEA     CLEAR     68  30  24 NW6       30.04
DODGE CENTER   PTCLDY    66  30  26 NW12      30.04R
PRESTON        CLEAR     65  35  32 NW8       30.02S
OWATONNA       CLEAR     66  32  28 N13       30.04R
FARIBAULT      CLEAR     68  34  28 NW7       30.04R
$$

...ELSEWHERE IN MINNESOTA...


CITY           SKY/WX    TMP DP  RH WIND       PRES   REMARKS
MINNEAPOLIS    CLEAR     68  29  23 NW13G24   30.03R
INTNL FALLS    CLEAR     59  29  31 NW7       30.07R
DULUTH         CLEAR     63  26  24 N12       30.03R
RED WING       CLEAR     70  25  18 N8        30.00R
REDWOOD FALLS  CLEAR     68  32  26 NW9       30.07R
MANKATO        CLEAR     66  34  30 N9        30.05R
WORTHINGTON    CLEAR     68  30  24 N15       30.10R
FAIRMONT       CLEAR     70  27  19 NW10      30.07R
$$

...SOUTHWEST WISCONSIN...


CITY           SKY/WX    TMP DP  RH WIND       PRES   REMARKS
LA CROSSE      CLEAR     67  43  41 NW7       29.98R
PRAIRIE DU CHI CLEAR     69  31  24 NW9       29.99R
BOSCOBEL       CLEAR     70  34  26 NW6       29.98R
LONE ROCK      PTCLDY    69  39  33 NW9       29.96R
PLATTEVILLE    CLEAR     67  43  41 W7        29.99R
FORT MC COY    CLEAR     67  36  32 W6        29.98R
CAMP DOUGLAS   PTCLDY    66  39  37 NW8       29.96R
VIROQUA        FAIR      65  37  35 NW6       30.00R
WIS DELLS      PTCLDY    66  38  35 W7        29.96R
$$

...ELSEWHERE IN WISCONSIN...


CITY           SKY/WX    TMP DP  RH WIND       PRES   REMARKS
MILWAUKEE      PTCLDY    69  34  27 W9        29.95S
MADISON        PTCLDY    66  43  43 SW6       29.96R
GREEN BAY      MOCLDY    56  41  57 E10       29.98R
EAU CLAIRE     CLEAR     66  34  30 N5        29.99R
BLACK RVR FLS  FAIR      68  33  27 N7        29.97R
MEDFORD        CLEAR     58  32  36 N7        30.00R
WAUSAU         CLEAR     62  27  26 N8        29.98R
WIS RAPIDS     CLEAR     67  32  27 N15G22    29.98R
MARSHFIELD     CLEAR     64  30  27 N9        29.99R
RICE LAKE      CLEAR     66  30  26 NW7       30.02R
$$

...NORTHEAST IOWA...


CITY           SKY/WX    TMP DP  RH WIND       PRES   REMARKS
DECORAH        CLEAR     66  36  32 NW9       30.01R HAZE
MASON CITY     CLEAR     67  35  30 NW10      30.06R
CHARLES CITY   CLEAR     70  30  23 NW15      30.04R
OELWEIN        CLEAR     66  32  28 NW10      30.03R
$$

...ELSEWHERE IN IOWA...


CITY           SKY/WX    TMP DP  RH WIND       PRES   REMARKS
DES MOINES     PTCLDY    70  38  31 W9        30.08R
IOWA CITY      MOCLDY    68  45  43 W6        30.04R
FORT DODGE     CLEAR     70  37  30 NW6       30.08R
$$

...NORTHERN ILLINOIS...


CITY           SKY/WX    TMP DP  RH WIND       PRES   REMARKS
CHICAGO-OHARE  PTCLDY    65  36  34 W9        30.01S
CHICAGO-MIDWAY PTCLDY    67  36  31 W7        30.02R
MOLINE         PTCLDY    65  41  41 SW6       30.03S
ROCKFORD       CLEAR     64  41  42 SW8       30.03S
PEORIA         CLEAR     66  42  41 SW8       30.08S
$$

NOTE: "FAIR" INDICATES FEW OR NO CLOUDS BELOW 12,000 FEET WITH NO
SIGNIFICANT WEATHER AND/OR OBSTRUCTIONS TO VISIBILITY. WIND
SPEEDS ARE IN MILES-PER-HOUR.



USA.gov is the U.S. government's official web portal to all federal, state and local government web resources and services.